sat.trackr.live / text

‹ back to catalog

STARLINK-2616

NORAD 48695 · 2021-044BK

PAYLOAD ACTIVE UNKNOWN

§ Identity

Operator
Country
US
Launch date
2021-05-26
Launch site
AFETR
Launch vehicle
Mass (kg)
RCS (m²)

Purposes: comms

External: N2YO · Heavens-Above · Gunter

§ Orbital elements

Epoch: 2026-05-25T02:54:19.306656Z

Period
94.01 min
Inclination
53.1619°
Eccentricity
0.0001407
Mean motion
15.31706762 rev/d
Perigee alt
469.8 km
Apogee alt
471.7 km
Semi-major
6,848.9 km
B*
-4.1164e-5
RAAN
82.3120°
Arg perigee
117.3832°
Mean anomaly
242.7312°
Rev number
27,604

§ Raw data

STARLINK-26161 48695U 21044BK  26145.12105679 -.00001643  00000+0 -41164-4 0  99972 48695  53.1619  82.3120 0001407 117.3832 242.7312 15.31706762276040

JSON: /api/v1/satellites/48695 · /tle

For live sub-satellite position, see the globe view (requires WebGL).

§ Visibility from observer

Set your observer location to see the next 7 days of passes ≥ 10°. The values pass through the URL so the page stays shareable.

No JS? Fill the form by hand. The geolocation button needs JavaScript.